Location: Central Falls
(41.8900°N, 71.3929°W)
Time: 14:19:49
(UTC+00:00)

Courier 1B - Visible Passes

Search period start: 03 December 2023 00:00
Search period end: 13 December 2023 00:00
Orbit: 962 x 1208 km, 28.3° (Epoch: 02 December)

Date Brightness Start Highest point End Pass type
(mag) Time Alt. Az. Time Alt. Az. Time Alt. Az.
09 Dec 10.3 10:59:55 10° S 11:02:53 13° SSE 11:05:47 10° SE visible
11 Dec 10.0 11:03:51 10° SSW 11:08:42 19° SSE 11:13:23 10° ESE visible
12 Dec 10.1 10:10:46 10° SSW 10:15:04 16° SSE 10:19:14 10° SE visible
